Location: Hurecourt
(47.9030°N, 6.0653°E)
Time: 10:27:11
(UTC+00:00)

Meteor 1-18 Rocket - Pass Details

Date: 14 July 2020
Orbit: 836 x 909 km, 81.2° (Epoch: 05 August)

Event Time Altitude Azimuth Distance (km) Brightness Sun altitude
Rises 01:01:37 0° 346° (NNW) 3,520 8.4 -18.2°
Reaches altitude 10° 01:04:07 10° 343° (NNW) 2,566 7.5 -18.0°
Maximum altitude 01:09:53 64° 264° (W) 966 4.3 -17.7°
Enters shadow 01:12:51 29° 191° (SSW) 1,555 5.0 -17.5°
